Location: Star Dogged Moon Observatory
(29.7756°N, 82.0783°W)
Time: 16:33:57
(UTC-04:00)

ARGOS - Visible Passes

Search period start: 23 May 2017 00:00
Search period end: 02 June 2017 00:00
Orbit: 821 x 834 km, 98.6° (Epoch: 22 May)

Date Brightness Start Highest point End Pass type
(mag) Time Alt. Az. Time Alt. Az. Time Alt. Az.
23 May 5.6 00:13:54 12° W 00:13:54 12° W 00:15:29 10° WNW visible
23 May 3.8 22:13:33 36° E 22:14:16 38° ENE 22:19:14 10° N visible
23 May 5.1 23:55:04 20° W 23:55:04 20° W 23:58:27 10° NW visible
24 May 4.3 21:54:42 23° E 21:55:52 25° ENE 22:00:12 10° NNE visible
24 May 4.5 23:36:13 31° W 23:36:13 31° W 23:40:39 10° NW visible
25 May 4.8 21:35:51 15° E 21:37:30 17° ENE 21:40:48 10° NNE visible
25 May 3.8 23:17:22 48° W 23:17:22 48° W 23:22:30 10° NNW visible
26 May 5.2 21:18:14 10° ENE 21:19:12 10° ENE 21:20:09 10° NE visible
26 May 3.1 22:58:32 75° WSW 22:58:42 76° WSW 23:04:07 10° NNW visible
27 May 3.0 22:39:41 66° ESE 22:40:10 71° ENE 22:45:34 10° N visible
28 May 3.5 22:20:51 42° E 22:21:42 45° ENE 22:26:50 10° N visible
29 May 5.3 00:02:22 17° W 00:02:22 17° W 00:05:27 10° NW visible
29 May 4.1 22:02:00 27° E 22:03:16 30° ENE 22:07:55 10° NNE visible
29 May 4.7 23:43:31 26° W 23:43:31 26° W 23:47:52 10° NW visible
30 May 4.7 21:43:11 17° E 21:44:53 20° ENE 21:48:42 10° NNE visible
30 May 4.0 23:24:41 40° W 23:24:45 40° W 23:29:50 10° NNW visible
31 May 5.1 21:24:20 10° E 21:26:33 13° ENE 21:28:53 10° NE visible
31 May 3.3 23:05:51 62° WSW 23:06:10 63° WSW 23:11:33 10° NNW visible
01 Jun 3.0 22:47:01 71° SSE 22:47:37 84° ENE 22:53:04 10° N visible
